User: anonymous   Login
Location: York
(31.8935°S, 116.7682°E)
Time: 10:41:12
(UTC+08:00)
Language:

STARS - Orbit

View from above orbital plane
View from above orbital plane
View from above satellite
View from above satellite

Ground track
Ground track

The orbit data is extracted from the following two-line orbital elements,

1 33498U 09002G   21206.47737200  .00000305  00000-0  48277-4 0  9999
2 33498  98.2090  87.3517 0009853 219.0329 141.0172 14.79382533673084
Epoch (UTC): 25 July 2021 11:27:24
Eccentricity: 0.0009853
inclination: 98.2090°
perigee height: 624 km
apogee height: 638 km
right ascension of ascending node: 87.3517°
argument of perigee: 219.0329°
revolutions per day: 14.79382533
mean anomaly at epoch: 141.0172°
orbit number at epoch: 67308

The dashed part of the orbit path shows where the satellite is in the earth's shadow,  

DLR